Location: Dehesa de la Cepeda
(40.6574°N, 4.3013°W)
Time: 19:58:29
(UTC+00:00)

Explorer 7 - Pass Details

Date: 15 August 2021
Orbit: 484 x 676 km, 50.3° (Epoch: 17 September)

Event Time Altitude Azimuth Distance (km) Brightness Sun altitude
Exits shadow 01:20:13 11° 41° (NE) 1,614 9.9 -33.7°
Drops below altitude 10° 01:20:18 11° 42° (NE) 1,638 9.9 -33.7°
Sets 01:22:45 0° 54° (NE) 2,556 10.9 -33.5°
